User: anonymous   Login
Location: Unspecified
(0.0000°N, 0.0000°E)
Time: 23:54:32
(UTC+00:00)
Language:

SJ-6H - Orbit

View from above orbital plane
View from above orbital plane
View from above satellite
View from above satellite

Ground track
Ground track

The orbit is defined by the following mean orbital elements,

1 37180U          26145.59845632 +.00000000 +00000-0 +42469-4 0 00001
2 37180  97.8697 150.7807 0010944  24.5268 335.6473 14.99262665    01
Epoch (UTC): 25 May 2026 14:21:46
Eccentricity: 0.0010944
inclination: 97.8697°
perigee height: 562 km
apogee height: 577 km
right ascension of ascending node: 150.7807°
argument of perigee: 24.5268°
revolutions per day: 14.99262665
mean anomaly at epoch: 335.6473°

The dashed part of the orbit path shows where the satellite is in the earth's shadow,  

DLR